GLOBALSTAR M055 [-]

Last updated on Fri Dec 29 2023 00:02:56 GMT+0000 (Coordinated Universal Time)

1 25910U 99049D 23362.42213972 -.00000085 00000+0 83416-4 0 9993 2 25910 52.0020 95.9937 0007739 100.0144 260.1581 12.29392501102488

Satellite not in orbit

GLOBALSTAR M055 [-]